Location: Unspecified
(0.0000°N, 0.0000°E)
Time: 19:37:55
(UTC+00:00)

Transit 2A - Pass Details

Date: 01 June 2019
Orbit: 596 x 962 km, 66.7° (Epoch: 18 August)

Event Time Altitude Azimuth Distance (km) Brightness Sun altitude
Rises 05:16:55 0° 245° (WSW) 3,394 - -9.5°
Exits shadow 05:20:28 - 269° (W) 2,695 8.2 -8.6°
Reaches altitude 10° 05:22:18 10° 287° (WNW) 2,560 8.2 -8.2°
Maximum altitude 05:22:56 10° 293° (WNW) 2,558 8.3 -8.1°
Drops below altitude 10° 05:23:35 10° 299° (WNW) 2,580 8.4 -7.9°
Sets 05:29:17 0° 340° (NNW) 3,592 9.5 -6.6°
